Elmira, NY

10:51 PM EDT on September 18, 2019 (GMT -0400)
Elmira-Corning Regional

Weather History for KELM - August, 2019

Change the Weather History Date:

Tuesday, August 20, 2019

  Actual Average Record
Temperature  
Mean Temperature 72 °F -  
Max Temperature 87 °F 79 °F 92 °F (1971)
Min Temperature 61 °F 52 °F 39 °F (1998)
Cooling Degree Days 8    
Growing Degree Days 22 (Base 50)    
Moisture  
Dew Point 64 °F    
Average Humidity 87    
Maximum Humidity 100    
Minimum Humidity 49    
Precipitation  
Precipitation 0.00 in - - ()
Sea Level Pressure  
Sea Level Pressure 30.09 in    
Wind  
Wind Speed 2 mph (WSW)    
Max Wind Speed 7 mph    
Max Gust Speed -    
Visibility 6 miles    
Events Fog    
Averages and records for this station are not official NWS values.
T = Trace of Precipitation, MM = Missing Value Source: NWS Daily Summary

Daily Weather History Graph

Daily Weather History Graph

Search for Another Location

Airport or City:

Astronomy

Aug. 20, 2019 Rise Set
Actual Time 6:20 AM EDT 8:01 PM EDT
Civil Twilight 5:50 AM EDT 8:30 PM EDT
Nautical Twilight 5:14 AM EDT 9:06 PM EDT
Astronomical Twilight 4:35 AM EDT 9:45 PM EDT
Moon 10:43 PM EDT (8/20) 11:00 AM EDT (8/20)
Length of Visible Light 14h 40m
Length of Day
13h 40m
Waning Gibbous, 78% of the Moon is Illuminated
Aug 20
Waning Gibbous
Aug 23
Last Quarter
Aug 30
New
Sep 5
First Quarter
Sep 14
Full

Hourly Weather History & Observations

Time (EDT) Temp. Heat Index Dew Point Humidity Pressure Visibility Wind Dir Wind Speed Gust Speed Precip Events Conditions
12:53 AM 64.9 °F - 64.0 °F 97% 30.08 in 10.0 mi Calm Calm - N/A   Clear
1:53 AM 62.1 °F - 62.1 °F 100% 30.09 in 7.0 mi Calm Calm - N/A   Clear
2:18 AM 61.0 °F - 61.0 °F 100% 30.10 in 1.8 mi Calm Calm - N/A   Clear
2:30 AM 61.0 °F - 61.0 °F 100% 30.10 in 3.0 mi Calm Calm - N/A   Clear
2:53 AM 62.1 °F - 61.0 °F 96% 30.09 in 10.0 mi West 3.5 mph - N/A   Clear
3:33 AM 62.1 °F - 61.0 °F 96% 30.11 in 8.0 mi WSW 3.5 mph - N/A   Scattered Clouds
3:38 AM 64.0 °F - 63.0 °F 96% 30.11 in 2.0 mi WSW 5.8 mph - N/A   Mostly Cloudy
3:42 AM 64.0 °F - 63.0 °F 96% 30.11 in 0.8 mi SW 4.6 mph - N/A   Mist
3:53 AM 64.0 °F - 64.0 °F 100% 30.09 in 0.5 mi Calm Calm - N/A Fog Fog
4:53 AM 63.0 °F - 63.0 °F 100% 30.10 in 0.5 mi Calm Calm - N/A Fog Fog
5:53 AM 63.0 °F - 63.0 °F 100% 30.11 in 0.5 mi WNW 4.6 mph - N/A Fog Fog
6:25 AM 63.0 °F - 63.0 °F 100% 30.13 in 0.2 mi West 4.6 mph - N/A Fog Fog
6:53 AM 62.1 °F - 62.1 °F 100% 30.12 in 0.2 mi West 3.5 mph - N/A Fog Fog
7:02 AM 62.1 °F - 62.1 °F 100% 30.14 in 0.8 mi Calm Calm - N/A   Mist
7:05 AM 62.1 °F - 62.1 °F 100% 30.14 in 2.0 mi Calm Calm - N/A   Overcast
7:22 AM 63.0 °F - 63.0 °F 100% 30.14 in 0.5 mi Variable 3.5 mph - N/A Fog Fog
7:53 AM 64.0 °F - 64.0 °F 100% 30.14 in 0.5 mi WSW 4.6 mph - N/A Fog Fog
7:56 AM 64.0 °F - 64.0 °F 100% 30.15 in 3.0 mi WSW 4.6 mph - N/A   Overcast
8:07 AM 64.0 °F - 64.0 °F 100% 30.15 in 2.0 mi West 4.6 mph - N/A   Overcast
8:18 AM 64.0 °F - 64.0 °F 100% 30.15 in 0.8 mi Calm Calm - N/A   Overcast
8:48 AM 64.4 °F - 64.4 °F 100% 30.15 in 2.0 mi Calm Calm - N/A   Overcast
8:53 AM 64.9 °F - 64.9 °F 100% 30.14 in 2.0 mi Calm Calm - N/A   Overcast
9:02 AM 64.9 °F - 64.9 °F 100% 30.15 in 5.0 mi Calm Calm - N/A   Overcast
9:22 AM 66.0 °F - 64.9 °F 96% 30.15 in 1.0 mi Calm Calm - N/A   Overcast
9:45 AM 69.1 °F - 64.9 °F 87% 30.14 in 10.0 mi Calm Calm - N/A   Scattered Clouds
9:53 AM 70.0 °F - 66.0 °F 87% 30.13 in 10.0 mi Calm Calm - N/A   Scattered Clouds
10:53 AM 75.9 °F - 66.9 °F 74% 30.12 in 10.0 mi Calm Calm - N/A   Clear
11:53 AM 80.1 °F 81.9 °F 64.9 °F 60% 30.11 in 10.0 mi Calm Calm - N/A   Partly Cloudy
12:53 PM 82.0 °F 84.1 °F 66.0 °F 58% 30.11 in 10.0 mi WSW 6.9 mph - N/A   Partly Cloudy
1:53 PM 84.0 °F 85.8 °F 64.9 °F 53% 30.09 in 10.0 mi Calm Calm - N/A   Clear
2:53 PM 84.9 °F 86.6 °F 64.9 °F 51% 30.06 in 10.0 mi Calm Calm - N/A   Clear
3:53 PM 84.9 °F 86.1 °F 64.0 °F 49% 30.05 in 10.0 mi SW 5.8 mph - N/A   Scattered Clouds
4:53 PM 84.9 °F 87.1 °F 66.0 °F 53% 30.02 in 10.0 mi South 5.8 mph - N/A   Scattered Clouds
5:53 PM 84.9 °F 86.6 °F 64.9 °F 51% 30.02 in 10.0 mi South 6.9 mph - N/A   Clear
6:53 PM 82.9 °F 85.4 °F 66.9 °F 58% 30.00 in 10.0 mi SSE 5.8 mph - N/A   Clear
7:53 PM 78.1 °F - 69.1 °F 74% 30.00 in 10.0 mi Calm Calm - N/A   Overcast
8:53 PM 77.0 °F - 68.0 °F 74% 30.01 in 10.0 mi Calm Calm - N/A   Mostly Cloudy
9:53 PM 72.0 °F - 68.0 °F 87% 30.01 in 10.0 mi Calm Calm - N/A   Clear
10:53 PM 69.1 °F - 66.9 °F 93% 29.99 in 10.0 mi Calm Calm - N/A   Clear
11:53 PM 71.1 °F - 68.0 °F 90% 29.98 in 10.0 mi Calm Calm - N/A   Scattered Clouds